Temp
83 83 86 85 87 67 78 79 71 76 86 81 70 71 72 69 66 61 73 71 78 80 79 81 81 80 80 82 83 83 82 82 81 77 80 83 83 85 88 89 90 90 91 89 91 91 92 93 92 92 90 91 90 89 89 88 88 89 88 87 88 88 88
83 89 88 87 88 88 82 72 78 86 87 83 72 61 65 62 58 63 71 67 65 72 60 78 79 78 79 79 80 82 80 81 78 78 80 81 83 84 86 88 90 90 90 90 92 93 92 93 93 93 90 92 91 91 91 89 89 88 90 90 90 89 88
83 84 85 83 87 89 82 79 90 75 64 63 71 67 56 57 56 61 67 71 71 74 70 75 75 79 79 80 82 82 81 80 79 80 82 84 85 84 84 84 85 88 90 89 91 92 94 94 92 93 93 93 93 93 94 95 91 92 92 94 92 90 90
81 82 81 68 76 84 86 87 83 88 79 72 65 68 70 68 58 60 62 68 65 77 78 75 79 81 81 82 82 83 84 83 82 83 84 84 84 84 83 82 86 87 89 92 92 92 93 94 93 94 95 95 95 95 94 94 95 93 91 92 91 90 92
80 70 77 74 77 74 75 76 76 78 78 84 79 77 71 67 62 62 62 61 69 74 76 80 80 81 82 83 81 83 84 85 85 84 83 83 83 82 83 84 85 86 86 88 91 94 94 93 94 96 96 96 96 96 96 95 93 94 93 93 93 91 92
72 76 83 82 81 83 79 77 74 79 74 70 64 61 78 74 67 58 61 61 69 71 81 80 80 82 82 82 82 82 84 85 85 84 83 82 82 82 83 85 86 87 88 90 94 94 94 92 91 93 96 96 96 95 92 92 92 93 95 94 92 91 91
76 78 80 83 83 83 84 82 78 82 80 78 70 57 67 73 72 75 72 65 66 75 77 80 80 80 80 80 82 82 84 84 83 84 84 83 83 81 84 85 87 87 87 89 92 91 92 91 91 93 93 94 93 95 93 91 90 89 93 93 93 91 91
78 80 82 82 82 83 80 83 85 83 77 79 76 74 76 71 71 68 68 62 67 72 76 79 81 78 79 78 78 78 79 80 80 81 81 81 80 81 83 84 85 84 84 87 88 87 87 89 89 91 92 92 93 91 91 91 89 89 93 91 90 89 89
67 71 76 77 82 81 78 79 82 81 82 82 82 81 79 69 71 71 64 59 68 69 75 76 78 78 76 77 78 79 76 77 78 78 78 79 80 80 80 79 78 78 78 80 81 83 84 85 87 89 89 90 91 88 89 89 89 89 90 90 89 88 88
53 53 56 61 65 72 78 77 76 77 79 78 75 69 69 60 69 72 67 67 72 72 72 74 75 75 74 76 77 78 78 77 77 77 77 76 78 78 79 79 79 77 77 78 78 79 81 83 84 85 86 86 87 87 87 88 88 88 88 89 88 87 88
61 60 64 70 75 75 71 72 74 75 78 79 77 75 70 65 69 66 70 72 69 68 70 72 75 74 74 74 74 75 76 75 76 75 75 76 76 76 78 78 79 79 78 79 79 79 81 80 80 80 83 85 86 86 86 87 88 87 87 87 87 86 88
69 71 69 74 74 71 71 72 72 75 75 75 75 71 67 72 69 62 71 73 72 74 74 73 74 75 75 75 73 72 72 73 72 72 74 75 77 77 77 78 78 79 79 80 80 79 80 81 81 81 82 82 83 84 85 86 87 87 87 86 86 86 87
70 72 73 74 74 73 73 73 73 72 74 74 73 73 73 71 67 63 69 72 72 77 79 77 76 76 74 74 73 72 72 73 72 72 72 74 76 76 77 77 78 79 79 79 79 81 80 80 80 81 81 80 81 82 83 84 86 86 87 86 85 86 86
70 71 72 74 73 72 73 72 73 74 74 73 73 73 74 73 68 71 73 72 70 78 79 78 78 78 76 74 74 74 73 72 72 73 73 74 75 75 76 76 77 77 78 78 78 79 79 80 81 81 81 81 81 80 80 82 83 84 84 84 84 85 85
67 70 72 73 74 72 70 73 74 74 74 74 74 74 74 73 73 72 73 72 71 78 80 77 77 77 77 74 72 72 72 72 72 73 75 76 75 75 75 74 74 75 75 76 76 76 77 78 79 80 80 81 82 83 82 82 81 83 84 83 83 84 84
64 69 70 71 72 74 71 69 70 71 72 70 72 71 72 72 68 69 69 69 71 75 78 77 75 74 74 72 72 73 72 72 72 73 76 75 75 74 73 73 72 73 73 72 72 73 72 71 72 73 74 77 79 79 80 81 81 81 82 82 82 82 82
62 70 70 70 70 69 65 65 67 69 72 73 75 74 73 72 72 70 68 62 70 75 76 72 71 72 72 73 73 73 73 73 74 75 76 76 76 75 73 72 71 72 72 73 73 73 73 74 74 74 77 77 78 79 79 79 79 79 80 81 81 80 80
61 67 69 70 63 54 54 66 72 71 69 69 70 71 72 73 75 70 72 73 74 75 76 73 71 72 73 74 75 78 76 75 76 77 78 78 77 75 74 73 72 72 72 73 73 73 73 76 80 79 78 78 78 78 78 78 77 78 79 80 80 80 79
61 66 65 59 51 54 64 71 73 73 73 73 70 70 73 73 74 74 74 74 74 75 77 77 76 75 77 78 77 78 80 79 78 78 79 78 75 73 72 70 71 71 71 72 72 73 78 79 80 81 79 78 75 72 72 72 74 75 76 76 77 78 79
66 61 61 47 52 63 68 70 71 71 74 73 72 67 72 72 73 73 73 74 75 75 76 78 78 76 77 77 77 77 80 81 81 81 80 78 76 73 73 71 70 70 71 72 72 73 75 77 78 78 79 78 76 73 74 73 72 73 73 74 75 76 77
56 60 60 58 59 63 65 64 65 66 59 63 63 61 66 70 73 73 72 73 74 75 77 77 77 76 75 71 73 79 80 79 81 82 80 78 76 75 73 74 73 74 72 71 72 73 74 75 75 75 78 80 76 74 73 72 71 71 71 71 72 74 73
65 58 55 58 56 51 56 63 69 73 71 69 69 65 64 70 73 74 74 73 74 73 75 73 73 74 68 64 68 78 81 82 81 83 80 79 77 76 75 75 75 75 75 76 75 76 73 72 73 74 76 77 78 75 74 74 73 71 70 70 70 71 71
62 59 54 53 51 52 59 63 68 71 74 72 70 64 62 66 70 72 71 72 73 72 70 70 71 68 63 66 72 78 80 81 83 80 78 78 76 76 76 76 76 76 76 77 77 76 75 72 73 75 75 75 76 76 75 75 75 73 72 73 72 71 72
61 60 56 53 59 53 60 65 69 72 75 73 68 54 57 64 70 71 71 71 73 72 71 70 69 67 65 69 73 80 81 83 80 77 75 75 75 76 77 79 79 77 77 76 77 76 74 72 74 74 75 75 73 73 73 76 76 74 73 73 74 75 75
59 54 59 63 57 62 65 67 69 73 74 68 57 50 57 66 66 70 71 71 73 74 72 71 68 71 73 73 77 78 79 80 77 77 77 76 77 77 79 78 76 78 78 79 79 79 75 75 77 77 76 74 72 71 72 73 73 73 74 75 74 73 73
59 61 57 59 58 59 65 70 71 72 67 56 54 61 68 66 67 71 73 72 73 74 73 72 70 70 77 77 77 75 74 72 72 72 72 74 78 79 77 75 76 77 78 76 76 78 78 79 79 78 75 72 71 71 71 71 73 76 76 75 75 74 73
61 59 56 53 45 57 67 67 69 68 61 57 63 65 66 70 70 71 72 74 75 76 74 75 73 74 77 71 71 73 72 70 69 69 68 67 70 72 73 75 76 76 75 76 76 76 78 80 79 77 76 73 73 73 71 72 76 76 76 75 75 75 74
55 57 52 49 57 62 68 66 58 61 62 65 65 64 64 69 71 70 70 73 74 73 72 74 74 74 72 70 70 71 71 72 72 71 71 71 70 71 74 76 77 78 76 76 75 76 77 76 76 76 75 73 73 72 71 75 77 77 76 75 74 74 74
58 55 57 61 65 66 69 67 64 65 66 66 66 66 67 67 69 71 71 71 74 73 72 73 72 67 65 64 67 68 69 69 70 70 72 71 71 71 70 72 73 75 75 73 74 75 75 74 75 74 74 72 72 71 73 75 76 76 76 76 74 74 74
64 66 66 67 67 66 68 71 70 68 67 68 68 67 66 68 68 71 70 72 73 73 72 71 71 69 66 65 67 67 67 66 67 69 71 70 70 69 68 69 71 73 73 73 73 72 72 74 74 75 74 74 71 72 75 75 76 76 76 74 73 73 75
57 51 63 64 64 66 67 68 70 72 70 68 69 68 68 68 69 70 72 71 72 72 72 69 67 65 66 64 64 65 63 63 63 65 64 65 66 66 65 66 67 68 70 71 71 71 70 72 74 74 74 74 74 74 75 76 77 76 75 74 73 74 74
59 57 60 63 65 65 67 68 66 67 68 68 69 70 70 70 71 70 70 73 73 74 71 69 69 68 68 67 64 64 63 62 62 62 63 63 63 65 67 68 69 68 68 68 69 69 69 70 72 73 74 74 75 76 77 79 79 76 74 74 75 74 75
62 61 63 64 65 64 66 68 68 67 67 67 68 69 70 71 70 70 71 71 71 72 70 70 69 67 65 65 63 62 62 61 60 59 60 61 62 64 65 68 68 67 67 67 67 68 69 70 71 71 72 74 74 74 76 77 76 75 75 74 75 75 75
59 58 57 60 57 58 64 65 66 67 68 68 67 68 69 69 68 69 69 71 72 72 71 70 69 66 65 65 63 61 61 61 61 59 59 59 60 61 64 67 67 67 67 67 66 67 68 70 70 71 71 72 73 76 75 75 75 74 73 73 74 74 75
57 58 61 62 61 60 62 64 65 67 68 67 67 66 66 68 70 70 68 68 69 70 70 72 71 68 66 65 65 63 62 60 60 59 60 59 59 59 61 62 63 65 66 67 67 66 67 69 69 70 70 70 71 72 74 75 74 73 73 72 72 73 73
61 62 62 63 62 59 62 65 65 66 67 67 66 69 68 67 68 69 69 67 66 68 68 70 71 70 68 67 67 64 62 60 59 59 59 60 60 60 61 60 61 62 63 65 66 66 67 68 69 70 71 71 70 72 72 73 73 73 73 72 71 72 72
59 62 63 63 62 63 66 66 67 66 66 66 66 66 67 66 67 68 68 67 68 68 68 69 69 70 70 69 70 66 63 61 60 59 59 58 59 60 60 61 60 60 62 64 66 67 68 67 68 69 68 69 71 73 72 72 71 71 71 72 71 70 70
MSLP
1011.07 1011.19 1010.55 1010.75 1010.35 1016.59 1012.83 1012.95 1014.87 1013.27 1010.63 1012.43 1015.63 1015.31 1014.99 1016.07 1016.95 1018.27 1014.79 1015.31 1012.67 1012.47 1013.15 1012.59 1012.59 1012.91 1013.03 1012.67 1012.67 1012.75 1013.19 1013.43 1013.83 1015.03 1014.63 1014.35 1014.51 1014.39 1014.27 1014.39 1014.51 1014.51 1014.67 1015.03 1015.07 1015.23 1015.39 1015.47 1015.71 1015.87 1016.19 1016.39 1016.71 1017.03 1017.39 1017.87 1018.07 1018.19 1018.47 1018.75 1018.95 1019.03 1019.15
1010.95 1009.27 1009.59 1010.11 1009.99 1009.71 1011.47 1014.63 1012.59 1010.59 1010.59 1011.67 1014.87 1018.59 1016.87 1018.59 1019.71 1017.23 1014.87 1016.67 1017.39 1014.79 1018.75 1013.35 1013.07 1013.31 1013.31 1013.39 1013.11 1012.87 1013.31 1013.51 1014.47 1014.59 1014.55 1014.31 1014.27 1014.23 1014.15 1014.07 1014.07 1014.19 1014.47 1014.79 1014.71 1014.75 1014.99 1015.15 1015.35 1015.63 1015.99 1015.99 1016.27 1016.51 1016.87 1017.51 1017.87 1018.27 1018.23 1018.43 1018.63 1018.79 1019.11
1010.67 1010.31 1010.63 1011.15 1010.19 1009.39 1011.47 1012.31 1008.99 1013.71 1017.39 1017.87 1014.71 1016.51 1019.99 1019.79 1019.87 1017.67 1016.07 1014.87 1014.55 1013.31 1015.07 1013.95 1014.07 1013.19 1013.19 1012.99 1012.71 1012.87 1013.39 1013.63 1013.87 1013.75 1013.67 1013.51 1013.55 1013.95 1014.39 1014.71 1014.59 1014.43 1014.51 1014.67 1014.59 1014.67 1014.63 1014.71 1014.99 1015.19 1015.51 1015.75 1015.99 1016.23 1016.39 1016.71 1017.39 1017.59 1017.79 1017.87 1018.11 1018.39 1018.63
1011.11 1011.31 1011.79 1014.79 1013.07 1010.99 1010.51 1010.19 1010.51 1009.59 1012.43 1014.35 1016.47 1015.39 1014.71 1015.31 1018.39 1018.43 1017.35 1015.43 1016.31 1011.91 1012.19 1012.87 1012.27 1012.03 1012.19 1012.27 1012.43 1012.47 1012.43 1012.63 1012.87 1012.91 1012.91 1013.11 1013.51 1013.87 1014.35 1014.87 1014.59 1014.43 1014.35 1014.27 1014.31 1014.47 1014.63 1014.71 1014.95 1015.03 1015.27 1015.43 1015.83 1015.99 1016.27 1016.51 1016.71 1017.07 1017.43 1017.63 1017.91 1018.35 1018.35
1011.55 1013.99 1012.27 1012.67 1012.07 1013.43 1013.35 1013.35 1012.79 1012.39 1012.63 1010.03 1011.83 1012.95 1014.27 1015.67 1017.15 1017.15 1016.87 1017.31 1014.27 1012.95 1012.55 1011.47 1011.71 1011.59 1011.75 1011.83 1012.23 1011.95 1011.95 1012.03 1012.23 1012.35 1012.63 1013.03 1013.43 1013.87 1014.07 1014.27 1014.47 1014.39 1014.43 1014.31 1014.15 1014.07 1014.15 1014.35 1014.55 1014.67 1014.91 1015.27 1015.39 1015.63 1016.03 1016.23 1016.79 1016.99 1017.27 1017.39 1017.63 1018.03 1018.07
1013.47 1011.63 1009.95 1010.11 1010.39 1010.11 1011.63 1012.35 1013.07 1011.71 1013.51 1014.59 1016.43 1016.95 1012.43 1013.07 1015.19 1017.27 1017.35 1016.91 1014.11 1014.31 1011.63 1011.91 1011.83 1011.67 1011.75 1011.75 1011.91 1012.15 1011.87 1011.95 1012.11 1012.47 1012.71 1013.15 1013.51 1013.67 1013.75 1013.79 1013.87 1013.99 1014.11 1014.07 1013.83 1013.83 1013.95 1014.47 1014.83 1014.91 1014.67 1014.87 1015.19 1015.63 1015.91 1016.27 1016.47 1016.71 1016.87 1017.15 1017.39 1017.75 1017.91
1011.07 1011.23 1010.63 1009.91 1009.95 1009.83 1009.55 1010.39 1011.55 1010.43 1010.99 1011.91 1014.39 1017.31 1014.67 1013.75 1013.59 1013.07 1013.79 1016.03 1015.27 1013.03 1012.79 1011.87 1011.95 1012.07 1012.15 1012.23 1011.91 1012.11 1011.91 1012.03 1012.39 1012.51 1012.63 1012.87 1013.11 1013.75 1013.67 1013.63 1013.63 1013.75 1013.87 1013.91 1013.83 1014.07 1014.31 1014.51 1014.79 1014.87 1014.95 1015.03 1015.27 1015.39 1015.83 1016.23 1016.51 1016.75 1016.51 1016.75 1016.99 1017.39 1017.71
1010.95 1010.63 1010.11 1010.31 1010.27 1010.23 1011.11 1010.35 1009.39 1009.87 1011.63 1011.19 1012.11 1012.59 1011.79 1013.35 1013.63 1015.07 1015.27 1016.79 1014.91 1013.99 1012.71 1012.23 1011.87 1012.43 1012.43 1012.79 1012.75 1012.99 1012.95 1012.91 1012.83 1012.87 1013.03 1013.39 1013.83 1013.91 1013.79 1013.67 1013.83 1014.07 1014.23 1014.15 1014.15 1014.51 1014.67 1014.71 1014.95 1014.91 1014.95 1015.03 1015.23 1015.47 1015.71 1016.11 1016.55 1016.63 1016.51 1016.71 1016.99 1017.39 1017.63
1013.75 1013.03 1011.71 1011.75 1010.63 1010.75 1011.23 1010.59 1009.99 1010.51 1009.99 1009.83 1009.75 1010.27 1010.47 1013.51 1013.43 1013.55 1015.63 1017.51 1014.47 1014.75 1013.27 1012.75 1012.55 1012.71 1013.23 1013.35 1013.11 1012.99 1013.79 1013.75 1013.71 1013.83 1013.71 1013.55 1013.71 1014.07 1014.27 1014.51 1014.83 1014.95 1014.91 1015.27 1015.43 1015.11 1015.03 1014.99 1014.95 1014.83 1015.03 1015.23 1015.35 1015.67 1015.75 1016.07 1016.31 1016.39 1016.47 1016.63 1017.03 1017.35 1017.59
1017.71 1017.47 1016.99 1015.39 1014.51 1012.35 1011.31 1011.35 1011.87 1011.51 1011.43 1011.39 1012.11 1014.35 1013.63 1016.07 1013.27 1012.63 1014.55 1014.27 1013.31 1013.83 1013.75 1013.47 1013.23 1013.39 1013.67 1013.35 1013.47 1013.47 1013.47 1013.87 1013.99 1014.19 1014.27 1014.35 1014.27 1014.31 1014.31 1014.59 1014.87 1015.31 1015.31 1015.27 1015.51 1015.95 1015.55 1015.19 1015.11 1015.03 1015.15 1015.39 1015.47 1015.71 1015.91 1015.87 1016.19 1016.39 1016.51 1016.63 1016.99 1017.35 1017.55
1015.31 1015.95 1014.95 1013.55 1011.83 1012.27 1013.11 1012.79 1012.43 1012.27 1011.51 1011.19 1011.71 1011.95 1013.27 1014.35 1013.43 1014.83 1013.35 1012.95 1014.15 1014.79 1014.47 1014.03 1013.51 1013.59 1013.87 1014.07 1014.07 1014.19 1014.11 1014.19 1014.07 1014.31 1014.47 1014.63 1014.67 1014.67 1014.63 1014.63 1014.75 1014.99 1015.31 1015.47 1015.47 1015.63 1015.63 1015.51 1015.47 1015.59 1015.35 1015.39 1015.47 1015.71 1015.95 1015.91 1015.91 1016.19 1016.35 1016.59 1016.91 1017.23 1017.31
1013.87 1013.51 1013.83 1012.75 1012.47 1013.31 1013.23 1013.03 1012.99 1012.07 1012.19 1012.19 1012.55 1013.47 1014.19 1012.39 1013.95 1016.11 1012.87 1012.31 1013.39 1012.67 1012.87 1013.39 1013.47 1013.39 1013.39 1013.55 1014.15 1014.63 1014.63 1014.63 1014.95 1014.95 1014.87 1014.71 1014.67 1014.71 1014.75 1014.87 1014.91 1015.07 1015.15 1015.27 1015.43 1015.55 1015.47 1015.43 1015.55 1015.83 1015.67 1015.59 1015.67 1015.79 1016.03 1015.95 1015.95 1016.15 1016.27 1016.51 1016.79 1017.03 1017.19
1013.83 1013.27 1012.87 1012.63 1012.75 1012.91 1012.83 1012.79 1012.67 1012.87 1012.39 1012.43 1013.03 1012.51 1012.63 1013.31 1014.39 1015.51 1013.71 1012.83 1013.23 1011.59 1011.47 1012.23 1012.75 1012.91 1013.39 1013.83 1014.31 1014.63 1014.79 1014.75 1014.79 1015.03 1015.19 1015.11 1014.87 1014.79 1014.91 1014.91 1014.91 1014.91 1015.11 1015.23 1015.27 1015.23 1015.47 1015.51 1015.71 1015.79 1015.95 1015.99 1015.83 1015.91 1015.91 1015.99 1016.03 1016.07 1016.07 1016.39 1016.67 1016.83 1016.99
1013.87 1013.59 1013.39 1012.79 1012.79 1012.91 1012.67 1012.83 1012.55 1012.27 1012.43 1012.91 1012.91 1013.11 1012.67 1013.15 1014.23 1013.31 1012.79 1013.03 1014.23 1011.55 1011.51 1012.03 1012.31 1012.39 1012.91 1013.83 1014.15 1014.47 1014.79 1014.91 1014.87 1014.91 1015.23 1015.23 1015.07 1015.15 1015.07 1015.03 1015.07 1015.07 1015.11 1015.35 1015.39 1015.43 1015.59 1015.55 1015.59 1015.75 1015.87 1015.95 1015.99 1016.23 1016.43 1016.35 1016.31 1016.11 1016.19 1016.55 1016.75 1016.79 1016.95
1014.75 1013.75 1013.11 1012.99 1012.67 1012.75 1013.51 1012.55 1012.51 1012.47 1012.55 1012.51 1012.59 1012.51 1012.67 1012.75 1012.79 1013.23 1012.87 1013.11 1013.47 1011.87 1011.11 1012.11 1012.27 1012.55 1012.87 1013.79 1014.63 1014.71 1014.67 1014.75 1014.95 1014.91 1014.83 1014.79 1015.03 1015.11 1015.19 1015.43 1015.55 1015.59 1015.51 1015.51 1015.63 1015.79 1015.83 1015.79 1015.71 1015.75 1015.79 1015.79 1015.79 1016.03 1016.15 1016.31 1016.39 1016.19 1016.27 1016.67 1016.71 1016.83 1016.99
1015.35 1013.99 1013.75 1013.39 1012.99 1012.51 1012.87 1013.75 1013.67 1013.79 1013.11 1013.71 1013.39 1013.43 1013.51 1013.43 1014.27 1014.03 1013.95 1014.11 1013.47 1012.87 1011.95 1012.55 1013.11 1013.43 1013.79 1014.35 1014.43 1014.51 1014.71 1014.79 1014.83 1014.79 1014.47 1014.67 1014.91 1015.35 1015.75 1015.91 1015.91 1015.95 1016.07 1016.35 1016.31 1016.43 1016.67 1016.75 1016.71 1016.67 1016.59 1016.39 1016.15 1016.23 1016.19 1016.27 1016.27 1016.19 1016.55 1016.71 1016.95 1017.07 1017.03
1015.79 1013.75 1013.83 1013.79 1013.63 1013.91 1014.55 1015.19 1015.39 1014.87 1013.59 1013.31 1012.75 1012.87 1013.03 1013.43 1013.59 1013.83 1014.43 1016.19 1014.51 1012.71 1012.55 1013.79 1014.27 1014.27 1014.11 1014.19 1014.27 1014.55 1014.59 1014.55 1014.55 1014.63 1014.39 1014.67 1014.91 1015.43 1015.67 1015.91 1016.27 1016.31 1016.35 1016.39 1016.47 1016.55 1016.63 1016.63 1016.71 1016.67 1016.47 1016.47 1016.39 1016.19 1016.23 1016.15 1016.35 1016.55 1016.71 1016.75 1016.91 1017.11 1017.23
1015.95 1014.59 1014.15 1013.99 1015.63 1017.91 1017.95 1015.99 1014.19 1014.51 1014.95 1014.71 1014.15 1013.91 1013.79 1013.55 1013.07 1014.47 1014.11 1013.71 1013.19 1013.07 1013.11 1013.87 1014.39 1014.35 1014.23 1013.91 1013.75 1013.27 1013.83 1014.23 1014.15 1014.07 1013.99 1014.27 1014.63 1015.23 1015.55 1015.91 1016.15 1016.27 1016.23 1016.31 1016.47 1016.59 1016.55 1016.39 1016.27 1016.31 1016.27 1016.31 1016.35 1016.27 1016.31 1016.31 1016.59 1016.59 1016.71 1016.79 1016.91 1017.11 1017.19
1016.03 1014.91 1015.31 1016.71 1018.83 1017.51 1016.59 1014.71 1014.51 1014.23 1014.19 1014.03 1014.67 1014.23 1013.71 1013.67 1013.31 1013.31 1013.39 1013.27 1013.27 1012.87 1012.67 1012.95 1013.23 1013.39 1013.23 1013.11 1013.51 1013.55 1013.23 1013.35 1013.67 1013.75 1013.75 1014.23 1014.99 1015.63 1015.99 1016.43 1016.47 1016.55 1016.55 1016.55 1016.63 1016.59 1016.31 1016.35 1016.27 1016.11 1016.39 1016.35 1016.71 1016.95 1017.03 1017.15 1016.91 1016.87 1016.99 1017.03 1017.03 1016.95 1017.03
1015.35 1016.27 1016.19 1018.99 1017.99 1016.63 1015.43 1015.19 1014.87 1014.71 1013.75 1014.39 1014.23 1015.39 1014.39 1014.15 1013.87 1013.79 1013.79 1013.55 1013.23 1012.99 1012.95 1012.67 1012.75 1013.43 1013.51 1013.47 1013.35 1013.39 1013.15 1012.91 1013.19 1013.39 1013.75 1014.51 1015.23 1015.79 1015.87 1016.43 1016.71 1016.79 1016.67 1016.63 1016.71 1016.75 1016.55 1016.55 1016.59 1016.55 1016.35 1016.47 1016.87 1017.11 1017.07 1017.27 1017.31 1017.27 1017.31 1017.31 1017.23 1017.15 1017.27
1017.71 1016.23 1016.11 1016.99 1017.51 1016.23 1016.07 1016.15 1016.51 1016.43 1017.79 1017.07 1016.83 1016.91 1015.79 1015.07 1014.31 1014.11 1014.11 1013.75 1013.63 1013.39 1012.95 1013.11 1013.47 1013.75 1014.23 1014.99 1014.83 1013.67 1013.47 1013.59 1013.23 1013.27 1013.83 1014.55 1015.35 1015.71 1015.99 1016.07 1016.31 1016.31 1016.51 1016.71 1016.79 1016.71 1016.71 1016.71 1016.87 1016.91 1016.55 1016.39 1016.91 1017.15 1017.31 1017.51 1017.59 1017.71 1017.75 1017.91 1017.95 1017.75 1017.75
1015.75 1016.79 1017.51 1016.71 1017.71 1019.11 1018.47 1017.23 1015.99 1015.39 1015.59 1016.03 1015.83 1016.71 1016.23 1015.15 1014.83 1014.35 1013.79 1013.99 1013.71 1013.87 1013.63 1014.31 1014.47 1014.39 1015.87 1016.79 1015.99 1014.27 1013.75 1013.71 1013.71 1013.47 1014.23 1014.67 1015.35 1015.75 1015.91 1015.91 1016.03 1016.19 1016.27 1016.43 1016.51 1016.67 1016.99 1017.19 1017.19 1017.11 1016.99 1016.95 1016.95 1017.19 1017.39 1017.55 1017.71 1017.99 1018.11 1018.31 1018.35 1018.19 1018.15
1016.35 1016.75 1017.83 1017.47 1017.87 1019.23 1018.35 1017.39 1016.43 1015.67 1015.15 1015.39 1015.79 1016.71 1016.63 1016.27 1015.63 1015.31 1015.23 1014.51 1014.15 1014.43 1014.99 1015.19 1014.91 1015.67 1016.71 1015.83 1014.75 1014.19 1013.99 1014.03 1013.59 1014.27 1014.87 1015.07 1015.59 1015.83 1015.91 1015.99 1016.27 1016.27 1016.39 1016.43 1016.67 1016.87 1017.15 1017.55 1017.47 1017.27 1017.23 1017.27 1017.27 1017.47 1017.55 1017.63 1017.83 1018.15 1018.15 1018.07 1018.23 1018.35 1018.23
1016.47 1016.39 1017.19 1017.75 1016.27 1019.31 1018.35 1017.23 1016.39 1015.59 1015.03 1015.15 1016.07 1018.59 1017.59 1016.63 1016.07 1015.99 1015.59 1015.35 1014.63 1014.67 1014.91 1015.23 1015.55 1015.95 1016.15 1014.99 1014.43 1013.83 1013.99 1013.75 1014.07 1014.71 1015.43 1015.87 1016.03 1016.07 1015.87 1015.87 1015.99 1016.35 1016.59 1016.87 1016.99 1017.31 1017.67 1017.91 1017.63 1017.59 1017.51 1017.55 1017.75 1017.87 1017.87 1017.55 1017.87 1018.27 1018.43 1018.35 1018.15 1018.07 1018.19
1016.99 1018.27 1016.67 1015.59 1017.67 1017.79 1017.63 1017.11 1016.31 1015.39 1015.03 1016.19 1018.03 1019.19 1018.87 1016.87 1016.95 1016.35 1015.91 1015.59 1014.95 1014.55 1014.87 1015.15 1015.75 1014.95 1014.55 1014.39 1013.47 1013.79 1013.91 1014.11 1015.03 1015.23 1015.43 1015.71 1015.75 1015.95 1016.03 1016.43 1016.55 1016.79 1016.79 1016.79 1016.95 1017.31 1017.79 1017.79 1017.63 1017.63 1017.71 1017.95 1018.23 1018.27 1018.23 1018.23 1018.47 1018.55 1018.47 1018.39 1018.51 1018.55 1018.55
1016.55 1016.43 1017.43 1016.23 1017.67 1019.11 1018.03 1016.63 1016.15 1015.59 1016.11 1018.51 1019.15 1018.43 1017.51 1017.51 1017.07 1016.35 1015.79 1015.47 1014.83 1014.51 1014.47 1014.67 1015.15 1015.39 1014.27 1014.23 1014.15 1014.75 1015.35 1015.79 1016.19 1016.43 1016.27 1016.11 1015.83 1016.03 1016.63 1017.07 1017.03 1017.19 1017.31 1017.55 1017.67 1017.75 1017.67 1017.59 1017.63 1017.83 1018.07 1018.43 1018.55 1018.51 1018.55 1018.79 1018.63 1018.35 1018.47 1018.51 1018.47 1018.59 1018.75
1016.91 1017.19 1017.67 1017.79 1019.59 1019.03 1017.75 1017.15 1016.23 1016.83 1017.39 1019.31 1018.91 1018.19 1017.79 1017.03 1016.83 1016.39 1015.75 1015.15 1014.63 1014.39 1014.55 1014.31 1014.83 1014.91 1014.71 1015.63 1015.55 1015.19 1015.87 1016.47 1017.07 1017.63 1017.39 1017.31 1017.47 1017.27 1017.55 1017.67 1017.55 1017.67 1017.95 1018.03 1018.03 1018.07 1017.91 1017.83 1017.95 1018.15 1018.35 1018.71 1018.79 1018.71 1018.99 1018.99 1018.47 1018.43 1018.55 1018.67 1018.67 1018.79 1019.11
1018.15 1017.47 1018.59 1019.51 1019.15 1018.79 1017.79 1017.87 1019.19 1019.03 1019.07 1018.75 1018.59 1018.67 1018.11 1017.23 1016.67 1016.59 1016.27 1015.27 1014.95 1015.03 1014.75 1014.47 1014.63 1014.75 1015.55 1015.99 1015.99 1016.15 1016.59 1016.75 1016.95 1017.71 1017.79 1017.71 1017.95 1017.87 1017.71 1017.75 1017.87 1017.79 1018.19 1018.31 1018.51 1018.47 1018.43 1018.51 1018.51 1018.59 1018.75 1019.03 1019.11 1019.23 1019.39 1018.99 1018.75 1018.75 1018.87 1018.99 1019.11 1019.35 1019.67
1018.43 1018.95 1019.19 1018.91 1018.31 1018.19 1017.87 1018.07 1018.83 1018.63 1018.55 1018.51 1018.47 1018.43 1018.03 1017.63 1017.19 1016.63 1016.07 1015.63 1015.11 1014.99 1015.07 1014.71 1015.11 1016.27 1016.71 1017.03 1017.03 1017.27 1017.63 1017.99 1017.87 1017.95 1017.91 1018.15 1018.43 1018.31 1018.39 1018.43 1018.55 1018.43 1018.67 1018.99 1019.03 1019.03 1019.07 1019.11 1019.03 1019.03 1019.15 1019.43 1019.59 1019.75 1019.51 1019.11 1019.15 1019.11 1019.23 1019.39 1019.59 1019.79 1019.95
1018.07 1017.99 1018.03 1018.11 1018.11 1018.27 1017.99 1017.71 1017.95 1018.27 1018.35 1018.11 1018.07 1018.03 1017.99 1017.55 1017.47 1016.75 1016.67 1016.03 1015.47 1015.43 1015.27 1015.55 1015.87 1016.47 1017.03 1017.35 1017.39 1017.35 1017.59 1018.03 1018.27 1017.95 1018.07 1018.55 1018.79 1018.95 1018.91 1018.87 1018.79 1019.03 1019.31 1019.47 1019.67 1019.95 1019.91 1019.67 1019.51 1019.35 1019.43 1019.59 1019.95 1019.91 1019.51 1019.43 1019.35 1019.43 1019.55 1019.83 1020.03 1020.11 1020.07
1019.03 1019.99 1018.51 1018.47 1018.75 1018.43 1018.27 1018.23 1017.91 1017.75 1018.03 1018.23 1017.99 1017.95 1017.75 1017.71 1017.35 1017.19 1016.67 1016.43 1016.07 1015.79 1015.71 1016.11 1016.83 1017.31 1017.31 1017.95 1017.99 1017.87 1018.23 1018.87 1019.27 1019.11 1019.35 1019.39 1019.59 1019.75 1019.63 1019.55 1019.35 1019.59 1019.87 1020.03 1020.19 1020.31 1020.51 1020.31 1020.11 1019.95 1019.91 1019.87 1019.95 1019.83 1019.71 1019.55 1019.51 1019.67 1019.83 1020.03 1020.19 1020.27 1020.35
1018.63 1019.07 1019.11 1018.71 1018.51 1018.67 1018.35 1018.35 1018.55 1018.51 1018.43 1018.23 1017.91 1017.83 1017.59 1017.35 1017.23 1017.19 1017.15 1016.39 1016.07 1015.95 1016.23 1016.47 1016.75 1017.19 1017.23 1017.75 1018.27 1018.35 1018.51 1018.67 1018.91 1019.67 1020.15 1020.19 1020.15 1019.87 1019.59 1019.67 1019.67 1019.87 1020.23 1020.51 1020.67 1020.75 1020.87 1020.71 1020.47 1020.27 1020.23 1020.19 1020.07 1019.87 1019.75 1019.51 1019.51 1019.83 1020.15 1020.23 1020.31 1020.43 1020.43
1018.31 1018.79 1018.67 1018.47 1018.55 1018.67 1018.31 1018.19 1018.55 1018.71 1018.71 1018.55 1018.19 1017.91 1017.67 1017.43 1017.43 1017.35 1016.95 1016.99 1016.99 1016.67 1016.63 1016.67 1016.95 1017.31 1017.71 1017.79 1018.19 1018.87 1019.19 1019.27 1019.47 1019.71 1019.99 1020.27 1020.51 1020.47 1020.03 1019.95 1020.11 1020.47 1020.67 1020.91 1020.95 1020.99 1021.07 1020.91 1020.79 1020.71 1020.59 1020.43 1020.39 1020.27 1020.03 1019.91 1019.99 1020.07 1020.23 1020.35 1020.31 1020.39 1020.43
1018.19 1018.75 1019.47 1019.31 1019.59 1019.19 1018.51 1018.51 1018.71 1018.55 1018.59 1018.59 1018.47 1018.11 1017.91 1017.75 1017.75 1017.59 1017.43 1016.95 1016.87 1016.83 1016.99 1016.99 1017.27 1017.75 1017.83 1017.99 1018.19 1018.67 1019.03 1019.63 1019.95 1020.23 1020.39 1020.31 1020.43 1020.47 1020.47 1020.19 1020.47 1020.75 1020.95 1021.15 1021.35 1021.43 1021.39 1021.19 1021.03 1020.95 1020.91 1020.79 1020.55 1020.35 1020.35 1020.31 1020.27 1020.43 1020.63 1020.63 1020.59 1020.59 1020.67
1018.71 1019.59 1019.03 1019.19 1019.39 1019.43 1019.15 1018.99 1018.91 1018.63 1018.63 1018.75 1018.47 1018.51 1018.39 1018.03 1017.71 1017.59 1017.71 1017.63 1017.15 1017.11 1017.03 1016.71 1016.91 1017.47 1017.95 1018.03 1018.15 1018.59 1019.03 1019.55 1019.87 1020.15 1020.47 1020.43 1020.51 1020.67 1020.79 1020.91 1021.19 1021.35 1021.43 1021.51 1021.63 1021.71 1021.63 1021.55 1021.43 1021.31 1021.31 1021.23 1021.15 1020.95 1020.71 1020.55 1020.59 1020.75 1020.79 1020.91 1020.99 1021.03 1021.07
1019.15 1019.15 1019.15 1019.15 1019.39 1019.63 1019.15 1018.95 1018.99 1018.91 1018.87 1018.87 1018.71 1018.23 1018.31 1018.27 1017.95 1017.71 1017.71 1017.83 1017.83 1017.47 1017.39 1017.15 1016.79 1017.07 1017.63 1017.91 1017.95 1018.47 1019.11 1019.43 1019.63 1019.75 1019.99 1020.39 1020.55 1020.83 1021.03 1021.31 1021.63 1021.75 1021.95 1021.99 1022.07 1022.07 1021.91 1021.83 1021.75 1021.59 1021.47 1021.39 1021.39 1021.19 1021.11 1020.99 1020.87 1020.99 1020.99 1021.15 1021.27 1021.23 1021.31
1019.47 1019.35 1019.35 1019.43 1019.47 1019.31 1018.99 1018.91 1018.79 1018.95 1018.99 1019.07 1018.87 1018.63 1018.47 1018.63 1018.31 1018.07 1017.83 1017.83 1017.67 1017.59 1017.39 1017.23 1017.31 1017.15 1017.19 1017.63 1017.83 1018.23 1018.71 1019.23 1019.35 1019.51 1019.83 1020.31 1020.55 1020.63 1020.95 1021.47 1021.75 1022.07 1022.11 1022.19 1022.15 1022.19 1022.11 1022.23 1022.03 1021.95 1021.99 1021.79 1021.55 1021.39 1021.39 1021.31 1021.39 1021.35 1021.35 1021.31 1021.47 1021.63 1021.87
Wind_Speed
13 15 14 13 10 10 11 10 14 12 4 9 8 7 5 6 5 8 4 7 6 9 6 8 8 7 8 10 10 12 15 17 15 10 11 12 12 12 13 14 14 15 14 13 13 13 12 12 12 13 12 13 13 12 13 13 13 12 12 12 11 10 10
9 11 14 15 13 10 6 13 11 7 6 8 6 8 6 7 10 8 8 8 8 9 6 7 10 10 10 11 12 12 15 17 18 16 16 15 15 14 13 13 14 14 13 13 13 12 13 12 13 14 14 14 13 12 13 14 13 13 12 12 12 11 11
11 4 7 12 14 14 8 8 9 11 10 12 9 7 11 10 11 8 8 10 11 11 5 6 11 11 12 13 14 14 16 17 18 18 20 19 17 15 13 11 10 12 12 13 13 13 13 13 13 13 14 13 12 13 13 14 14 14 13 11 11 10 10
9 9 10 12 12 12 10 8 11 10 7 10 10 10 9 7 9 9 9 10 9 10 4 11 10 10 11 12 14 15 16 16 15 15 16 17 16 14 12 11 12 12 12 13 14 13 14 14 13 12 13 12 14 13 13 13 13 13 12 13 11 11 11
8 11 10 11 12 12 14 10 8 10 10 5 8 10 12 10 8 10 8 9 9 3 5 4 7 8 9 10 11 11 12 13 14 13 13 14 14 14 14 14 13 13 12 11 13 13 13 12 12 12 13 13 13 12 13 14 13 14 14 12 12 11 10
7 8 14 7 5 13 13 12 12 10 11 13 10 12 11 12 9 5 8 10 3 4 2 4 6 6 7 6 8 9 11 12 12 11 12 13 13 13 14 14 14 13 13 13 14 13 11 10 11 12 12 12 13 13 11 12 12 12 13 12 11 10 10
7 8 3 4 4 4 8 12 13 11 11 11 11 10 10 10 11 9 9 9 2 4 1 1 4 5 5 5 5 7 8 11 12 11 11 11 12 12 13 13 12 12 12 12 12 13 12 12 11 12 11 10 11 12 12 11 12 12 11 10 10 10 10
1 2 4 3 2 6 10 10 10 11 14 13 13 11 9 10 10 10 8 11 2 4 3 2 4 6 5 5 6 7 7 5 5 9 10 12 11 12 11 9 7 7 6 6 8 10 10 10 10 11 11 10 10 10 11 11 12 12 12 10 10 10 10
7 7 8 6 6 9 10 11 9 6 8 8 8 7 5 9 12 11 11 12 6 4 3 3 4 7 7 8 8 8 9 8 6 6 5 6 10 11 9 9 8 8 10 8 4 6 8 8 8 9 9 9 9 10 10 10 10 10 10 9 10 10 10
10 10 11 11 12 11 4 1 1 5 11 13 11 12 9 7 8 13 11 11 4 7 6 7 7 7 8 8 8 7 7 9 9 9 9 8 8 10 10 8 9 9 9 8 8 7 6 7 7 8 8 8 9 9 10 9 9 10 10 10 10 10 9
4 5 5 5 2 4 10 6 3 3 8 6 9 9 11 11 8 8 10 11 3 7 9 9 10 10 10 10 9 9 9 8 6 5 7 8 8 8 9 11 9 8 8 9 9 10 9 8 7 4 7 9 9 9 10 11 10 10 11 10 10 10 10
4 4 6 6 2 2 2 4 3 3 5 6 10 12 11 6 10 9 6 6 10 7 10 10 11 11 10 9 8 6 6 8 8 7 7 7 9 9 9 10 11 12 11 11 10 8 8 8 6 5 6 6 7 8 9 9 9 9 9 10 11 11 10
4 4 4 3 3 3 2 3 1 2 3 6 11 9 3 4 9 8 2 5 9 8 8 11 11 10 9 9 7 8 8 8 9 9 8 9 9 9 10 10 10 11 11 11 10 11 8 7 8 8 7 5 6 5 6 7 8 9 9 10 11 11 10
4 5 2 2 2 2 2 1 3 1 3 2 3 5 1 1 3 3 4 5 8 3 5 8 9 8 8 8 8 8 9 8 8 9 9 9 8 9 8 7 7 7 8 7 8 9 9 9 9 9 9 10 8 7 6 8 8 7 7 9 9 10 10
3 1 2 3 5 1 3 3 3 2 2 1 1 0 2 2 2 3 2 4 3 4 5 8 8 6 7 9 10 10 9 9 9 9 10 10 10 9 8 7 7 7 6 8 8 8 8 8 9 8 8 9 9 10 10 10 8 7 9 9 9 9 9
8 3 2 1 2 6 2 3 5 7 2 2 5 2 5 4 2 2 1 4 3 5 4 8 6 7 9 9 10 9 9 9 9 9 9 8 9 9 8 8 8 8 9 9 9 8 8 8 6 5 4 4 7 7 8 8 7 7 10 10 9 8 7
8 6 3 3 5 3 8 4 9 9 5 4 1 4 4 5 4 5 4 5 3 1 4 6 6 7 7 8 8 8 9 10 10 9 9 9 9 9 8 9 9 9 9 9 9 8 7 5 4 4 4 5 5 6 8 7 6 6 9 10 9 9 8
6 7 6 7 7 11 1 5 7 7 7 9 7 6 7 6 5 5 3 2 4 2 5 5 6 8 8 7 7 7 8 8 9 9 9 9 9 8 8 9 10 10 9 9 9 9 9 7 6 5 5 6 5 2 3 5 8 10 9 9 9 9 9
6 1 6 10 11 7 5 4 7 7 6 8 7 4 5 6 4 4 3 2 2 2 5 5 6 7 7 7 8 7 7 8 8 9 10 9 9 8 10 10 10 9 10 11 10 10 9 9 8 7 6 5 5 5 5 6 2 6 5 5 8 8 9
3 7 7 10 4 8 3 3 8 12 5 9 8 4 7 10 9 7 6 5 2 3 3 5 5 7 7 6 5 5 7 6 6 7 7 9 9 9 9 10 11 11 10 10 10 9 7 5 6 6 7 7 6 7 7 8 7 6 5 6 7 6 6
7 6 7 4 4 5 5 2 9 10 7 9 8 3 6 11 10 8 6 4 2 1 4 5 7 8 7 6 5 6 5 3 3 6 8 11 8 8 9 11 11 11 10 9 9 8 7 7 6 7 6 7 9 9 9 8 8 7 7 7 5 6 6
3 7 8 7 7 9 4 8 7 7 6 5 4 5 3 12 13 13 8 3 4 1 4 7 8 9 9 9 8 8 8 7 7 7 9 11 9 8 9 9 11 11 10 10 9 9 9 8 7 6 7 8 9 10 10 10 10 9 7 7 6 7 8
4 6 8 8 7 4 7 9 10 9 6 5 2 5 3 9 15 15 12 8 1 2 5 7 9 10 10 10 9 10 10 10 9 10 10 10 10 10 10 12 12 12 11 11 10 10 10 9 7 7 8 9 10 11 11 12 12 11 10 10 9 8 8
3 6 5 7 2 4 8 11 11 10 9 4 5 6 3 10 15 16 13 11 2 4 5 7 9 10 10 8 8 11 10 10 9 9 10 11 11 10 10 11 12 12 13 12 12 11 10 9 8 8 8 8 9 9 9 11 12 11 9 8 9 10 10
4 2 6 3 6 6 11 13 12 10 7 4 6 2 7 14 13 14 13 12 9 5 6 7 8 8 4 3 11 11 10 12 12 10 9 10 11 10 10 11 11 11 11 11 12 12 10 8 8 8 8 9 8 8 9 11 12 11 11 10 8 8 9
4 2 4 3 7 5 9 12 8 12 9 5 2 7 8 11 12 11 12 12 9 6 6 7 6 4 4 10 12 14 12 11 10 10 10 7 10 10 11 10 9 9 9 11 11 11 10 9 8 8 8 9 8 8 8 10 10 10 10 9 9 9 9
4 3 5 3 2 6 12 14 1 15 5 5 6 8 10 9 10 11 10 8 8 7 6 7 6 4 5 9 8 11 10 11 10 10 11 11 8 11 12 9 9 9 10 10 10 9 8 8 7 8 9 9 8 8 9 8 8 9 8 8 9 10 10
6 4 3 2 6 5 9 9 6 6 5 4 6 6 8 9 9 9 9 7 5 7 9 7 7 5 6 8 7 8 6 6 8 7 8 10 10 10 10 9 9 9 9 9 9 8 7 7 7 7 8 8 8 9 9 6 9 10 10 9 10 10 10
3 4 4 3 4 4 5 5 4 3 3 3 5 5 7 8 8 9 7 7 7 8 9 6 3 8 8 9 7 6 5 5 6 7 9 8 8 9 10 9 9 7 8 9 8 8 7 7 6 6 7 9 10 10 7 7 9 10 11 11 10 10 10
3 4 4 3 4 4 5 5 4 4 5 4 5 7 7 7 8 8 8 9 6 5 5 1 3 6 8 8 7 8 8 5 4 7 7 8 6 7 9 9 10 10 9 9 9 8 6 5 6 6 6 7 8 8 8 8 8 9 10 10 10 10 9
3 1 3 3 3 4 5 5 5 5 6 6 6 7 7 7 8 9 8 8 6 5 2 5 7 8 8 10 9 10 10 10 8 9 9 9 8 8 10 9 9 10 8 8 9 8 7 6 5 5 6 6 6 7 7 8 8 9 9 9 9 9 9
5 3 4 2 4 4 5 5 5 6 7 8 7 6 7 7 6 7 8 9 6 4 0 5 7 9 8 8 7 6 8 9 11 11 10 10 10 9 10 9 10 9 8 8 8 8 7 5 5 5 5 5 5 4 5 5 7 8 8 8 8 9 9
2 5 3 2 5 2 0 4 5 6 7 8 8 8 8 9 9 7 7 7 7 6 3 3 6 9 9 9 11 10 9 9 8 9 11 11 10 9 11 10 10 9 8 8 8 8 7 5 5 5 5 5 4 4 3 4 5 6 7 8 8 9 8
7 2 2 4 4 3 2 4 7 7 7 8 8 8 9 9 9 9 8 6 5 4 2 1 4 7 8 8 11 12 11 11 12 11 10 10 11 10 10 10 10 9 8 8 7 7 6 6 5 5 5 4 3 4 4 4 5 6 6 6 7 7 7
2 4 2 4 3 4 3 5 6 7 6 8 8 8 9 9 9 9 8 8 5 4 3 1 3 4 8 9 9 10 11 12 12 11 10 10 10 10 9 10 9 8 7 6 6 6 5 5 4 5 5 5 4 3 2 4 5 6 6 6 6 5 6
1 2 2 1 4 5 5 6 6 5 5 7 8 8 8 9 9 9 7 7 7 5 1 1 1 2 6 9 11 11 12 13 13 12 12 10 11 10 10 9 8 8 6 5 4 5 4 3 3 3 4 5 4 4 4 3 4 5 5 6 6 6 6
3 3 2 2 4 5 5 5 4 3 5 7 7 7 8 8 9 9 8 6 5 6 3 0 1 2 5 7 8 12 13 13 13 14 14 12 11 11 11 10 9 6 5 4 2 2 2 2 2 3 4 3 3 4 3 3 3 3 4 4 5 5 6
Wind_Direction
189 198 201 210 197 206 183 212 217 222 249 241 231 248 222 229 291 239 146 237 220 124 182 156 155 156 172 176 170 171 174 176 168 159 176 179 181 187 189 190 193 194 191 194 198 197 196 192 189 187 182 182 183 178 179 186 192 191 191 191 195 198 194
198 216 199 207 201 247 165 213 213 183 236 276 234 228 201 227 242 236 202 199 240 219 179 186 164 177 166 178 178 173 168 172 177 181 188 192 189 187 191 194 195 195 194 195 198 197 197 194 189 184 184 186 183 182 180 183 190 194 194 193 196 197 197
165 162 209 201 210 225 246 231 192 208 188 211 197 226 226 220 221 228 208 216 231 230 192 173 184 185 172 174 177 176 173 179 185 184 189 193 190 185 184 188 193 195 193 193 197 196 196 193 192 186 184 185 184 186 185 188 192 194 195 196 195 197 198
145 185 194 203 189 200 250 293 233 199 231 221 212 210 240 237 236 232 217 201 227 226 172 196 174 179 167 167 175 183 178 180 181 183 187 184 182 179 168 186 196 194 195 197 196 196 195 192 189 188 186 188 189 189 186 191 191 194 196 198 192 199 199
165 200 193 211 193 190 195 213 221 191 229 261 230 226 232 233 239 235 237 221 222 102 32 81 142 155 160 165 172 179 179 178 179 180 178 172 172 173 173 184 191 189 191 197 198 198 196 192 190 192 190 193 193 190 190 191 189 194 195 198 194 197 200
194 217 186 240 285 199 196 206 217 214 203 210 208 219 212 231 234 229 229 241 107 51 26 91 122 126 140 150 168 173 177 175 173 168 172 176 179 176 175 180 186 191 194 199 200 198 195 189 188 198 196 195 193 192 185 189 188 197 196 193 193 192 199
200 71 99 324 296 288 224 202 216 212 219 220 219 233 204 217 234 242 252 270 171 72 114 142 124 126 129 148 161 166 165 171 177 173 177 176 177 173 178 176 178 182 190 196 199 193 195 188 190 190 193 196 195 194 180 183 186 191 199 190 187 187 193
291 136 103 173 249 219 222 223 245 217 215 211 230 230 232 231 215 221 226 242 183 123 108 189 127 121 137 143 166 168 167 135 151 159 173 166 172 176 164 149 147 132 127 186 193 188 190 188 189 189 190 190 187 190 183 182 187 186 190 184 181 184 188
178 164 172 171 180 215 229 223 193 279 278 253 259 280 284 253 224 226 228 237 192 124 161 138 160 147 162 169 169 171 170 167 161 168 170 172 181 177 166 156 143 140 143 157 187 182 180 184 187 190 187 188 186 186 186 185 185 184 187 176 179 181 185
210 191 189 192 185 194 150 202 220 228 247 236 223 227 213 240 239 228 230 238 105 129 168 166 174 162 171 171 162 168 166 167 164 168 173 178 189 190 180 159 156 163 169 171 175 192 190 172 173 182 184 187 188 185 191 190 184 180 181 177 180 180 183
296 32 33 42 7 184 206 135 209 181 220 240 250 256 248 228 221 230 228 251 167 178 178 182 181 181 178 175 173 179 169 170 157 154 158 172 183 185 192 190 183 170 169 174 175 183 194 179 184 172 184 184 192 192 193 193 189 182 181 179 179 183 187
64 59 48 64 16 163 106 192 164 161 191 220 231 227 243 253 257 248 237 203 239 213 182 182 182 184 187 187 173 164 166 155 158 168 180 174 183 179 186 191 193 193 191 187 180 176 181 182 193 203 204 194 187 195 196 193 188 183 181 181 181 182 190
75 47 78 95 93 71 87 92 114 175 175 203 229 237 282 328 244 260 41 230 237 242 186 171 179 178 181 179 167 163 168 171 169 171 180 186 186 183 183 191 191 195 195 192 187 192 188 183 192 199 202 187 188 189 195 197 194 190 187 187 185 184 187
85 87 103 201 147 154 159 94 73 116 200 190 209 214 186 226 26 325 231 221 226 278 155 156 157 166 169 167 169 174 180 184 173 172 177 182 175 172 176 169 169 180 179 170 186 188 190 197 199 203 207 208 194 182 186 205 203 191 180 193 188 187 189
156 54 141 206 221 249 182 93 59 63 212 114 59 36 72 280 207 12 286 208 198 60 108 131 130 156 158 162 178 178 177 174 173 171 176 173 169 162 142 139 150 161 164 170 174 179 187 192 197 194 197 200 201 201 202 207 203 199 208 203 195 193 194
197 186 288 170 263 232 190 86 26 3 307 323 26 6 22 320 351 3 282 222 174 93 112 114 147 167 172 173 177 172 171 171 169 176 170 155 144 138 135 135 127 124 122 119 120 121 101 90 91 105 121 162 191 198 197 203 201 193 209 211 201 200 189
225 193 276 249 248 258 230 114 19 356 30 357 65 82 42 19 334 268 271 38 337 21 133 147 166 186 179 177 180 171 172 174 171 176 169 148 147 149 149 137 132 129 128 127 129 122 120 127 132 135 164 181 187 195 202 188 187 192 209 213 212 207 197
237 218 253 265 238 234 157 26 17 4 9 2 347 39 32 36 346 18 350 350 22 173 179 190 184 196 186 180 168 175 170 174 170 177 167 161 145 142 132 123 121 120 118 120 118 118 121 133 138 151 178 191 197 213 261 200 193 208 210 207 200 199 194
248 253 248 240 240 232 87 37 28 1 346 3 346 14 45 36 35 357 331 353 304 254 209 193 193 196 186 178 169 184 177 182 178 185 159 136 123 148 138 129 123 122 122 121 120 124 125 120 122 132 134 137 112 97 95 81 142 198 206 209 204 200 199
268 246 223 235 216 99 144 56 24 5 345 6 326 183 39 21 6 353 336 9 335 208 194 194 175 188 166 179 167 168 190 199 189 186 150 129 133 139 131 130 127 131 127 125 125 121 120 124 110 99 104 110 111 105 103 108 110 114 136 169 176 179 181
272 251 252 213 146 163 57 31 15 12 1 344 355 347 59 18 6 2 349 6 352 240 189 150 159 144 157 179 176 194 178 172 193 174 147 136 129 129 132 138 133 130 123 123 122 122 118 110 100 95 99 107 106 102 101 105 112 120 116 100 93 114 109
281 264 247 223 210 224 101 43 15 7 358 318 302 278 129 31 9 350 338 348 352 77 142 149 162 166 178 198 185 184 162 173 159 152 122 126 129 139 135 130 128 128 124 127 128 126 121 108 104 108 109 113 113 110 111 112 112 101 94 96 99 96 101
231 243 249 245 239 52 20 4 355 354 350 330 257 249 179 34 360 345 340 327 337 194 164 172 180 188 202 201 177 170 160 167 156 135 127 123 130 136 139 135 128 128 128 126 123 119 116 111 110 110 113 111 111 113 110 111 106 100 105 107 103 97 98
246 277 252 247 321 107 9 349 346 345 343 302 243 240 145 11 354 336 327 324 277 193 190 189 207 207 206 199 152 147 148 155 109 124 119 125 135 140 135 129 124 120 123 126 122 118 111 107 115 117 113 105 98 95 100 110 107 98 89 90 96 101 101
109 244 257 236 125 79 2 346 338 335 340 332 249 251 351 339 333 323 320 310 297 228 213 211 220 228 315 11 116 125 135 144 119 111 121 133 137 136 129 119 123 130 132 128 124 117 115 122 119 113 105 100 95 93 100 106 103 101 102 98 89 84 84
273 335 275 240 77 36 333 338 340 343 282 233 328 4 328 317 315 318 311 298 298 262 233 222 218 210 134 114 117 116 115 105 109 118 112 106 130 119 113 127 130 122 116 116 117 119 123 124 122 113 103 97 97 97 91 90 103 112 109 101 96 91 86
253 227 253 263 223 57 4 333 276 17 1 33 336 320 314 320 322 324 322 303 295 280 249 231 208 218 177 134 140 125 129 122 125 141 131 117 109 125 132 136 127 124 125 125 120 120 122 119 117 113 109 102 102 97 91 94 111 112 108 103 99 97 97
297 253 274 11 34 11 20 13 43 30 29 334 329 312 322 332 329 342 325 320 312 305 271 247 211 196 121 103 89 83 87 112 124 133 123 128 143 145 130 129 125 130 123 120 118 115 108 104 108 110 112 109 105 102 97 102 114 118 117 104 99 98 100
320 9 57 94 57 31 39 50 65 52 5 343 321 318 318 333 346 344 325 337 324 342 330 260 180 95 85 87 83 90 81 55 102 126 127 136 149 146 134 126 127 129 118 113 111 117 122 120 115 114 114 117 117 112 109 115 116 115 115 113 111 112 110
107 83 37 114 104 49 52 69 68 45 23 17 340 349 345 357 350 342 347 328 332 321 328 29 148 131 131 128 117 108 104 97 106 116 132 131 109 86 92 102 107 107 110 107 112 109 104 106 116 121 119 118 117 118 127 127 129 129 123 120 119 118 121
240 162 108 82 98 81 47 42 45 43 36 17 1 358 353 350 358 354 359 347 343 343 262 174 150 146 145 120 121 109 101 89 63 72 80 76 84 96 90 88 95 96 96 102 103 98 87 76 88 101 111 119 117 132 137 144 143 141 136 131 128 128 125
264 72 104 86 119 85 53 32 19 20 20 11 11 7 358 356 2 7 7 347 13 333 247 153 161 163 169 137 115 123 114 108 105 87 70 75 80 88 92 89 86 91 95 97 95 92 85 76 71 81 91 102 116 130 139 154 148 149 148 145 138 136 133
108 123 117 81 159 206 167 47 27 17 7 355 3 4 1 10 12 11 16 26 15 5 31 142 139 138 139 130 129 121 127 116 90 101 109 96 78 65 75 76 72 75 81 81 81 82 83 82 80 80 80 89 100 113 117 122 151 160 153 153 150 147 144
241 262 82 6 261 223 131 16 360 350 356 344 349 356 3 7 10 11 8 10 32 26 28 213 163 151 159 143 128 127 124 120 120 109 97 97 97 86 67 69 65 69 70 73 73 73 72 72 80 87 92 92 101 106 115 130 150 151 153 159 157 151 145
333 63 48 31 327 288 0 348 342 333 351 341 334 351 354 358 6 6 15 7 8 21 18 351 236 177 162 159 144 130 125 122 119 115 115 114 110 100 93 81 70 63 67 73 78 75 71 73 81 88 94 99 95 85 95 126 141 143 157 154 156 151 159
197 63 42 356 312 312 320 326 328 327 341 329 330 334 342 344 356 0 9 18 7 11 24 323 324 198 167 175 165 145 128 127 128 126 121 109 97 97 93 90 101 96 79 67 72 78 82 83 86 93 100 102 103 106 94 104 134 146 155 155 158 154 140
334 15 338 325 299 301 311 310 321 323 345 334 327 325 336 331 342 347 355 10 15 7 358 210 91 293 191 180 186 164 153 149 142 135 128 121 126 127 125 125 108 102 109 108 93 95 103 116 123 108 98 84 74 68 76 105 86 127 152 157 137 122 129